QPF
0.00 0.00 0.00 0.00 0.00 0.00 0.00 0.00 0.00 0.00 0.00 0.00 0.00 0.00 0.00 0.00 0.00 0.00 0.00 0.00 0.00 0.00 0.00 0.00 0.00 0.00 0.00 0.00 0.00 0.00 0.00 0.00 0.00 0.00 0.00 0.00 0.00 0.00 0.00 0.00 0.00 0.00 0.00 0.00
0.00 0.00 0.00 0.00 0.00 0.00 0.00 0.00 0.00 0.00 0.00 0.00 0.00 0.00 0.00 0.00 0.00 0.00 0.00 0.00 0.00 0.00 0.00 0.00 0.00 0.00 0.00 0.00 0.00 0.00 0.00 0.00 0.00 0.00 0.00 0.00 0.00 0.00 0.00 0.00 0.00 0.00 0.00 0.00
0.00 0.00 0.00 0.00 0.00 0.00 0.00 0.00 0.00 0.00 0.00 0.00 0.00 0.00 0.00 0.00 0.00 0.00 0.00 0.00 0.00 0.00 0.00 0.00 0.00 0.00 0.00 0.00 0.00 0.00 0.00 0.00 0.00 0.00 0.00 0.00 0.00 0.00 0.00 0.02 0.00 0.00 0.03 0.11
0.00 0.00 0.00 0.00 0.00 0.00 0.00 0.00 0.00 0.00 0.00 0.00 0.00 0.00 0.00 0.00 0.00 0.00 0.00 0.00 0.00 0.00 0.00 0.00 0.00 0.00 0.00 0.00 0.00 0.00 0.00 0.00 0.00 0.00 0.00 0.00 0.01 0.08 0.02 0.13 0.00 0.01 0.03 0.07
0.00 0.00 0.00 0.00 0.00 0.00 0.00 0.00 0.00 0.00 0.00 0.00 0.00 0.00 0.00 0.00 0.00 0.00 0.00 0.00 0.00 0.00 0.00 0.00 0.00 0.00 0.00 0.00 0.00 0.00 0.00 0.00 0.00 0.00 0.00 0.00 0.00 0.00 0.00 0.00 0.00 0.00 0.00 0.01
0.00 0.00 0.00 0.00 0.00 0.00 0.00 0.00 0.00 0.00 0.00 0.00 0.00 0.00 0.00 0.00 0.00 0.00 0.00 0.00 0.00 0.00 0.00 0.00 0.00 0.00 0.00 0.00 0.00 0.00 0.00 0.00 0.00 0.00 0.00 0.00 0.00 0.00 0.00 0.00 0.00 0.00 0.00 0.00
0.00 0.00 0.00 0.00 0.00 0.00 0.00 0.00 0.00 0.00 0.00 0.00 0.00 0.00 0.00 0.00 0.00 0.00 0.00 0.00 0.00 0.00 0.00 0.00 0.00 0.00 0.00 0.00 0.00 0.00 0.00 0.00 0.00 0.00 0.00 0.00 0.00 0.00 0.00 0.00 0.00 0.00 0.00 0.00
0.00 0.00 0.00 0.00 0.00 0.00 0.00 0.00 0.00 0.00 0.00 0.00 0.00 0.00 0.00 0.00 0.00 0.00 0.00 0.00 0.00 0.00 0.00 0.00 0.00 0.00 0.00 0.00 0.00 0.00 0.00 0.00 0.00 0.00 0.00 0.00 0.00 0.00 0.00 0.00 0.00 0.00 0.00 0.00
0.00 0.00 0.00 0.00 0.00 0.00 0.00 0.00 0.00 0.00 0.00 0.00 0.00 0.00 0.00 0.00 0.00 0.00 0.00 0.00 0.00 0.00 0.00 0.00 0.00 0.00 0.00 0.00 0.00 0.00 0.00 0.00 0.00 0.00 0.00 0.00 0.00 0.00 0.00 0.00 0.00 0.00 0.00 0.00
0.00 0.00 0.00 0.00 0.00 0.00 0.00 0.00 0.00 0.00 0.00 0.00 0.00 0.00 0.00 0.00 0.00 0.00 0.00 0.00 0.00 0.00 0.00 0.00 0.00 0.00 0.00 0.00 0.00 0.00 0.00 0.00 0.00 0.00 0.00 0.00 0.00 0.00 0.00 0.00 0.00 0.00 0.00 0.00
0.00 0.00 0.00 0.00 0.00 0.00 0.00 0.00 0.00 0.00 0.00 0.00 0.00 0.00 0.00 0.00 0.00 0.00 0.00 0.00 0.00 0.00 0.00 0.00 0.00 0.00 0.00 0.00 0.00 0.00 0.00 0.00 0.00 0.00 0.00 0.00 0.00 0.00 0.00 0.00 0.00 0.00 0.00 0.00
0.00 0.00 0.00 0.00 0.00 0.00 0.00 0.00 0.00 0.00 0.00 0.00 0.00 0.00 0.00 0.00 0.00 0.00 0.00 0.00 0.00 0.00 0.00 0.00 0.00 0.00 0.00 0.00 0.00 0.00 0.00 0.00 0.00 0.00 0.00 0.00 0.00 0.00 0.00 0.00 0.00 0.00 0.00 0.00
0.00 0.00 0.00 0.00 0.00 0.00 0.00 0.00 0.00 0.00 0.00 0.00 0.00 0.00 0.00 0.00 0.00 0.00 0.00 0.00 0.00 0.00 0.00 0.00 0.00 0.00 0.00 0.00 0.00 0.00 0.00 0.00 0.00 0.00 0.00 0.00 0.00 0.00 0.00 0.00 0.00 0.00 0.00 0.00
0.00 0.00 0.00 0.00 0.00 0.00 0.00 0.00 0.00 0.00 0.00 0.00 0.00 0.00 0.00 0.00 0.00 0.00 0.00 0.00 0.00 0.00 0.00 0.00 0.00 0.00 0.00 0.00 0.00 0.00 0.00 0.01 0.01 0.00 0.00 0.00 0.00 0.00 0.00 0.00 0.00 0.00 0.00 0.00
0.00 0.00 0.00 0.00 0.00 0.00 0.00 0.00 0.00 0.00 0.00 0.00 0.00 0.00 0.00 0.00 0.00 0.00 0.00 0.00 0.00 0.00 0.00 0.00 0.00 0.00 0.00 0.00 0.00 0.00 0.01 0.01 0.01 0.00 0.00 0.00 0.00 0.00 0.00 0.00 0.00 0.00 0.00 0.00
0.00 0.00 0.00 0.00 0.00 0.00 0.00 0.00 0.00 0.00 0.00 0.00 0.00 0.00 0.00 0.00 0.00 0.00 0.00 0.00 0.00 0.00 0.00 0.00 0.00 0.00 0.00 0.02 0.04 0.05 0.01 0.00 0.00 0.00 0.00 0.00 0.00 0.00 0.00 0.00 0.00 0.00 0.00 0.00
0.00 0.00 0.00 0.00 0.00 0.00 0.00 0.00 0.00 0.00 0.00 0.00 0.00 0.00 0.00 0.00 0.00 0.00 0.00 0.00 0.00 0.00 0.00 0.00 0.00 0.00 0.01 0.04 0.02 0.00 0.00 0.00 0.00 0.00 0.00 0.00 0.00 0.00 0.00 0.00 0.00 0.00 0.00 0.00
0.00 0.00 0.00 0.00 0.00 0.00 0.00 0.00 0.00 0.00 0.00 0.00 0.00 0.00 0.00 0.00 0.00 0.00 0.00 0.00 0.00 0.00 0.00 0.00 0.00 0.00 0.00 0.00 0.00 0.00 0.00 0.00 0.00 0.00 0.00 0.00 0.00 0.00 0.00 0.00 0.00 0.00 0.00 0.01
0.00 0.00 0.00 0.00 0.00 0.00 0.00 0.00 0.00 0.00 0.00 0.00 0.00 0.00 0.00 0.00 0.00 0.00 0.00 0.00 0.00 0.00 0.00 0.00 0.00 0.00 0.00 0.00 0.00 0.00 0.00 0.00 0.00 0.00 0.00 0.00 0.00 0.00 0.00 0.00 0.01 0.01 0.02 0.02
0.00 0.00 0.00 0.00 0.00 0.00 0.00 0.00 0.00 0.00 0.00 0.00 0.00 0.00 0.00 0.00 0.00 0.00 0.00 0.00 0.00 0.00 0.00 0.00 0.00 0.00 0.00 0.00 0.00 0.00 0.00 0.00 0.00 0.00 0.00 0.00 0.00 0.00 0.00 0.03 0.04 0.03 0.03 0.03
0.00 0.00 0.00 0.00 0.00 0.00 0.00 0.00 0.00 0.00 0.00 0.00 0.00 0.00 0.00 0.00 0.00 0.00 0.00 0.00 0.00 0.00 0.00 0.00 0.00 0.00 0.00 0.00 0.00 0.00 0.00 0.00 0.00 0.00 0.00 0.00 0.00 0.00 0.02 0.03 0.03 0.04 0.04 0.04
0.00 0.00 0.00 0.00 0.00 0.00 0.00 0.00 0.00 0.00 0.00 0.00 0.00 0.00 0.00 0.00 0.00 0.00 0.00 0.00 0.00 0.00 0.00 0.00 0.00 0.00 0.00 0.00 0.00 0.00 0.00 0.00 0.00 0.00 0.00 0.00 0.00 0.00 0.01 0.02 0.03 0.05 0.06 0.06
0.00 0.00 0.00 0.00 0.00 0.00 0.00 0.00 0.00 0.00 0.00 0.00 0.00 0.00 0.00 0.00 0.00 0.00 0.00 0.00 0.00 0.00 0.00 0.00 0.00 0.00 0.00 0.00 0.00 0.00 0.00 0.00 0.00 0.00 0.00 0.00 0.00 0.00 0.00 0.03 0.06 0.07 0.06 0.05
0.00 0.00 0.00 0.00 0.00 0.00 0.00 0.00 0.00 0.00 0.00 0.00 0.00 0.00 0.00 0.00 0.00 0.00 0.00 0.00 0.00 0.00 0.00 0.00 0.00 0.00 0.00 0.00 0.00 0.00 0.00 0.00 0.00 0.00 0.00 0.00 0.00 0.00 0.01 0.05 0.07 0.05 0.02 0.01
0.00 0.00 0.00 0.00 0.00 0.00 0.00 0.00 0.00 0.00 0.00 0.00 0.00 0.00 0.00 0.00 0.00 0.00 0.00 0.00 0.00 0.00 0.00 0.00 0.00 0.00 0.00 0.00 0.00 0.00 0.00 0.00 0.00 0.00 0.00 0.00 0.00 0.01 0.01 0.02 0.02 0.01 0.02 0.04
0.00 0.00 0.00 0.00 0.00 0.00 0.00 0.00 0.00 0.00 0.00 0.00 0.00 0.00 0.00 0.00 0.00 0.00 0.00 0.00 0.00 0.00 0.00 0.00 0.00 0.00 0.00 0.00 0.00 0.00 0.00 0.00 0.00 0.00 0.00 0.00 0.00 0.01 0.02 0.05 0.02 0.02 0.02 0.00
MSLP
1003.29 1002.38 1001.16 1000.10 1000.00 999.81 999.04 998.65 999.10 999.60 1000.45 1000.49 1000.26 1001.76 1003.34 1004.01 1004.46 1005.66 1006.76 1007.93 1008.67 1009.42 1010.23 1011.16 1011.83 1012.52 1013.16 1013.98 1014.83 1015.56 1016.14 1016.50 1016.85 1016.98 1016.85 1016.81 1016.58 1016.44 1016.30 1016.19 1016.36 1016.67 1016.96 1017.13
1002.31 1001.43 1000.35 1000.03 1000.17 1000.32 1000.00 999.25 998.95 999.99 1000.54 1000.62 1000.35 1001.07 1002.49 1003.45 1003.72 1004.63 1005.66 1006.88 1007.65 1008.46 1009.47 1010.51 1011.41 1012.11 1012.73 1013.46 1014.31 1015.08 1015.66 1016.18 1016.62 1016.63 1016.68 1016.41 1016.14 1015.85 1015.69 1015.83 1015.89 1016.08 1016.42 1016.63
1000.91 1000.30 1000.20 1000.49 1000.71 1000.46 999.81 999.06 999.05 999.70 1000.51 1000.55 1000.27 1000.68 1001.65 1002.71 1003.30 1003.78 1004.78 1005.83 1006.51 1007.36 1008.49 1009.70 1010.76 1011.52 1012.21 1012.78 1013.62 1014.38 1015.16 1015.63 1016.15 1016.36 1016.34 1016.48 1016.67 1016.35 1015.75 1014.57 1015.37 1015.69 1016.04 1016.34
1000.74 1000.09 1000.39 1000.58 1000.09 1000.15 998.93 999.37 999.67 999.76 1000.13 999.59 1000.15 999.56 1001.03 1001.75 1002.56 1003.17 1003.93 1004.85 1005.60 1006.48 1007.67 1008.91 1010.05 1010.92 1011.42 1012.10 1012.85 1013.74 1014.61 1015.23 1015.66 1016.08 1015.99 1015.86 1015.67 1015.75 1015.35 1014.12 1014.98 1015.74 1016.02 1016.23
1000.25 999.94 1000.45 1000.25 1000.00 999.87 999.25 999.85 1000.11 1000.08 999.97 999.39 999.66 999.57 999.72 1000.80 1001.57 1002.25 1002.98 1003.78 1004.69 1005.69 1006.80 1007.95 1009.06 1010.12 1010.80 1011.35 1011.99 1012.89 1013.91 1014.71 1015.13 1015.56 1015.91 1015.58 1015.82 1015.22 1014.82 1014.87 1015.64 1015.48 1015.24 1015.30
999.45 999.97 1000.10 999.91 999.72 999.79 999.89 1000.38 1000.47 1000.34 999.64 998.98 999.30 999.54 999.12 999.27 999.99 1000.62 1001.34 1002.52 1003.84 1004.87 1005.92 1006.88 1008.11 1009.14 1009.97 1010.61 1011.24 1012.07 1013.18 1014.09 1014.73 1015.04 1015.34 1015.64 1015.54 1015.30 1015.04 1015.01 1015.29 1014.62 1014.24 1014.26
999.95 999.78 999.68 999.57 999.42 1000.09 1000.29 1000.04 999.61 999.65 999.24 998.67 998.75 999.35 999.04 999.50 1000.19 1000.63 1000.57 1001.25 1002.69 1004.01 1005.14 1006.13 1007.12 1008.15 1009.11 1009.74 1010.53 1011.45 1012.62 1013.51 1014.03 1014.43 1014.78 1015.09 1015.33 1015.46 1015.41 1015.43 1014.71 1014.97 1014.27 1014.19
999.00 998.95 999.28 999.51 999.26 999.56 999.90 999.14 998.11 998.10 997.99 998.16 999.76 999.54 999.64 1000.00 1000.76 1001.19 1001.62 1001.06 1001.59 1003.06 1004.30 1005.44 1006.40 1007.52 1008.42 1009.12 1010.10 1010.98 1012.00 1012.88 1013.45 1013.83 1014.19 1014.49 1014.78 1014.84 1014.83 1014.80 1014.53 1014.57 1014.52 1014.40
997.72 997.79 998.37 998.94 999.07 998.97 999.30 999.17 998.64 998.17 998.41 998.36 998.63 999.73 999.91 1000.38 1000.68 1001.22 1001.34 1001.28 1001.09 1002.17 1003.40 1004.67 1005.67 1006.80 1007.73 1008.51 1009.43 1010.41 1011.37 1012.29 1012.72 1013.13 1013.62 1013.98 1014.28 1014.55 1014.07 1014.22 1014.49 1014.38 1014.70 1014.64
996.96 997.13 997.34 998.39 998.94 998.87 998.92 999.35 999.21 998.94 998.29 998.65 998.54 999.40 999.45 1000.50 1000.67 1001.12 1001.46 1001.26 1001.34 1001.80 1003.01 1004.05 1005.15 1005.98 1007.04 1007.93 1008.81 1009.90 1010.70 1011.62 1012.01 1012.42 1012.99 1013.43 1013.78 1014.01 1014.04 1014.36 1014.59 1014.47 1014.72 1014.90
997.56 997.38 997.30 998.14 998.71 998.51 999.33 999.13 998.73 998.18 998.46 998.24 998.58 998.95 1000.25 1000.98 1001.48 1001.55 1001.72 1001.81 1001.91 1002.28 1003.06 1003.66 1004.54 1005.42 1006.52 1007.25 1008.21 1009.29 1010.09 1011.05 1011.46 1011.76 1012.23 1012.73 1013.04 1013.38 1013.91 1014.19 1014.31 1014.39 1014.43 1014.67
997.65 997.57 997.07 997.48 998.37 998.66 998.15 998.64 998.99 998.59 999.38 999.54 999.48 999.84 1000.60 1001.30 1001.78 1002.11 1001.93 1002.35 1002.64 1002.82 1003.28 1003.80 1004.65 1005.39 1006.49 1007.17 1007.77 1008.90 1009.73 1010.51 1011.17 1011.61 1012.06 1012.61 1013.08 1013.41 1013.66 1013.89 1013.99 1014.12 1014.17 1014.27
997.58 997.58 997.24 997.22 997.87 998.36 998.12 997.99 998.37 998.84 999.01 998.96 999.50 999.91 1000.84 1001.54 1001.87 1002.55 1002.72 1002.62 1003.20 1003.35 1003.56 1003.96 1004.99 1005.80 1007.10 1007.98 1008.40 1009.12 1009.85 1010.45 1011.17 1011.93 1012.38 1012.42 1012.77 1013.13 1013.34 1013.61 1013.77 1013.86 1013.91 1013.89
997.55 997.38 997.26 996.35 996.94 997.48 998.18 998.21 998.20 998.22 998.54 999.14 999.27 1000.13 1000.92 1001.41 1002.18 1002.78 1003.27 1003.62 1003.71 1004.10 1004.41 1004.91 1005.73 1007.13 1008.10 1008.61 1009.18 1009.78 1010.62 1010.88 1011.67 1012.35 1012.33 1012.67 1012.90 1013.11 1013.21 1013.32 1013.50 1013.54 1013.51 1013.42
997.53 997.43 997.55 997.03 996.34 996.54 997.06 997.79 997.87 998.49 998.86 998.87 998.79 999.71 1000.40 1001.95 1003.20 1004.01 1004.44 1004.69 1004.78 1004.96 1005.58 1006.17 1006.78 1008.17 1009.10 1009.64 1010.41 1010.82 1011.39 1011.71 1012.18 1012.51 1012.51 1013.03 1013.14 1013.28 1013.30 1013.30 1013.29 1013.24 1013.19 1013.06
997.40 997.31 997.91 997.12 996.81 996.67 996.35 997.02 997.68 998.18 998.69 999.05 999.40 999.74 1000.96 1002.90 1003.93 1004.46 1004.89 1005.23 1005.50 1005.83 1005.97 1006.61 1007.77 1008.99 1009.80 1010.44 1011.17 1012.05 1011.78 1012.20 1012.66 1012.89 1012.99 1013.13 1013.19 1013.23 1013.18 1012.99 1012.86 1012.73 1012.61 1012.58
997.09 997.33 997.72 997.19 997.31 996.99 997.00 996.93 997.16 997.58 998.46 999.06 999.37 1000.18 1001.74 1003.09 1004.29 1005.06 1005.42 1005.81 1006.22 1006.67 1007.31 1008.23 1009.14 1010.10 1011.07 1011.86 1011.89 1012.04 1012.50 1012.75 1012.87 1012.94 1013.04 1013.04 1013.03 1012.94 1012.78 1012.53 1012.24 1012.13 1012.03 1012.08
997.14 997.64 997.63 997.50 997.73 996.65 997.03 997.05 997.21 997.57 998.32 999.13 1000.12 1001.53 1003.07 1004.30 1005.24 1006.08 1006.42 1006.29 1007.14 1007.90 1008.67 1009.41 1010.10 1011.05 1011.78 1012.35 1012.83 1012.93 1013.04 1013.06 1013.07 1013.11 1013.13 1013.15 1013.09 1012.88 1012.64 1012.38 1012.05 1011.78 1011.62 1011.51
996.46 997.41 997.71 997.57 997.26 996.89 997.47 997.93 997.64 997.74 998.67 999.80 1000.91 1002.50 1003.92 1004.87 1006.05 1007.05 1007.32 1007.70 1008.32 1009.11 1010.00 1010.77 1011.40 1012.08 1012.64 1013.04 1013.26 1013.29 1013.29 1013.33 1013.32 1013.25 1013.33 1013.33 1013.14 1012.85 1012.51 1012.18 1011.95 1011.97 1011.64 1011.21
996.73 997.39 997.44 997.15 996.85 996.58 996.73 997.36 998.18 998.61 999.18 1000.49 1001.71 1003.01 1004.09 1005.33 1005.63 1007.29 1008.56 1009.15 1009.87 1010.69 1011.31 1011.73 1012.06 1012.58 1013.15 1013.58 1013.78 1013.81 1013.82 1013.73 1013.62 1013.77 1013.65 1013.43 1013.17 1012.77 1012.38 1012.10 1011.97 1011.76 1011.39 1010.87
996.95 996.93 997.07 997.01 997.46 997.83 998.06 998.63 999.25 999.78 1000.11 1000.83 1002.17 1003.27 1004.22 1005.36 1006.25 1008.14 1009.18 1009.97 1010.81 1011.63 1012.02 1012.27 1012.58 1013.03 1013.62 1014.03 1014.23 1014.13 1014.11 1013.95 1014.14 1013.89 1013.58 1013.30 1012.95 1012.68 1012.23 1011.67 1011.40 1011.19 1010.83 1010.51
996.65 997.06 997.02 997.55 997.49 997.99 999.03 999.65 1000.02 1001.14 1001.40 1002.06 1002.90 1003.84 1004.85 1006.51 1007.66 1008.72 1009.76 1010.69 1011.35 1011.94 1012.40 1012.63 1012.86 1013.32 1013.83 1014.24 1014.42 1014.41 1014.29 1014.49 1014.39 1014.34 1013.89 1013.49 1013.02 1012.51 1011.81 1011.44 1011.00 1010.84 1010.53 1010.16
995.99 996.28 996.83 997.99 998.21 998.90 999.79 1000.33 1001.42 1001.73 1002.05 1002.67 1003.36 1004.42 1005.94 1007.10 1008.15 1009.44 1010.42 1011.14 1011.79 1012.34 1012.82 1013.01 1013.22 1013.49 1013.99 1014.49 1014.89 1014.84 1015.10 1015.19 1015.13 1014.72 1014.17 1013.65 1013.07 1012.36 1011.67 1011.11 1010.83 1010.54 1010.04 1009.52
996.80 997.63 997.39 998.92 1000.46 1000.31 1001.19 1001.88 1002.23 1002.49 1002.84 1003.43 1004.52 1005.75 1006.76 1007.65 1008.91 1010.01 1010.94 1011.59 1012.27 1012.90 1013.32 1013.60 1014.03 1014.34 1014.77 1015.41 1015.73 1015.59 1015.78 1015.84 1015.30 1014.68 1014.28 1013.31 1012.28 1011.59 1011.11 1010.67 1010.22 1009.92 1009.33 1009.21
995.79 997.89 998.23 999.59 1000.97 1001.46 1002.04 1002.53 1003.05 1003.63 1004.17 1004.92 1005.80 1006.56 1007.56 1008.80 1009.91 1010.95 1011.84 1012.49 1013.05 1013.69 1014.11 1014.30 1014.81 1015.03 1015.05 1015.44 1015.80 1015.86 1016.03 1016.12 1015.64 1014.95 1014.02 1012.84 1012.08 1011.60 1010.85 1010.17 1010.25 1009.62 1009.14 1009.54
996.98 997.30 998.15 999.07 1000.94 1001.07 1002.91 1003.73 1004.29 1004.78 1005.54 1006.39 1007.22 1008.10 1009.03 1009.93 1010.73 1011.50 1012.53 1013.38 1013.83 1014.33 1014.62 1014.75 1014.99 1015.43 1015.78 1016.00 1015.91 1015.93 1016.39 1016.35 1015.74 1015.11 1014.05 1013.43 1012.76 1011.52 1010.62 1010.20 1009.80 1008.85 1009.12 1009.42
Thickness
5856 5843 5838 5864 5873 5873 5880 5880 5867 5877 5879 5872 5877 5854 5847 5855 5855 5842 5837 5830 5826 5823 5827 5824 5821 5818 5812 5805 5798 5793 5788 5786 5783 5780 5779 5779 5780 5784 5786 5787 5785 5782 5779 5776
5846 5836 5869 5882 5875 5864 5863 5865 5871 5872 5876 5870 5873 5862 5858 5856 5858 5853 5846 5838 5835 5833 5829 5825 5822 5820 5815 5809 5803 5797 5793 5789 5786 5786 5785 5787 5788 5790 5791 5791 5789 5785 5782 5779
5843 5859 5878 5866 5856 5849 5862 5868 5870 5860 5865 5873 5871 5855 5853 5860 5863 5864 5859 5853 5850 5843 5834 5829 5824 5821 5819 5814 5808 5803 5798 5795 5791 5789 5788 5786 5784 5786 5789 5797 5792 5788 5784 5780
5851 5875 5861 5855 5853 5860 5860 5881 5872 5866 5851 5838 5871 5833 5847 5855 5853 5857 5857 5854 5852 5850 5846 5838 5829 5824 5823 5820 5817 5810 5803 5798 5795 5792 5790 5787 5785 5779 5789 5791 5794 5784 5780 5777
5846 5857 5848 5845 5854 5871 5867 5877 5863 5862 5855 5862 5858 5846 5855 5868 5847 5851 5859 5859 5858 5856 5851 5843 5837 5831 5829 5827 5823 5817 5809 5801 5798 5794 5789 5789 5782 5789 5793 5792 5782 5783 5784 5782
5865 5879 5866 5862 5874 5875 5878 5859 5856 5857 5861 5837 5856 5850 5852 5865 5865 5871 5874 5867 5863 5858 5855 5852 5847 5841 5833 5832 5826 5820 5809 5802 5798 5795 5791 5785 5783 5783 5783 5783 5778 5784 5788 5787
5844 5850 5869 5876 5857 5864 5859 5845 5822 5816 5823 5828 5872 5849 5860 5879 5875 5874 5881 5877 5870 5865 5858 5852 5846 5841 5835 5832 5828 5821 5811 5801 5799 5795 5791 5787 5782 5779 5776 5773 5778 5773 5778 5778
5821 5815 5850 5868 5859 5844 5846 5858 5846 5810 5826 5844 5852 5826 5848 5876 5876 5876 5875 5886 5883 5869 5862 5855 5850 5844 5837 5834 5829 5823 5814 5805 5801 5797 5793 5791 5787 5783 5780 5778 5776 5773 5771 5770
5834 5834 5869 5866 5872 5871 5847 5836 5879 5853 5860 5841 5854 5848 5866 5870 5866 5866 5868 5874 5883 5872 5867 5856 5853 5847 5841 5835 5829 5822 5814 5805 5802 5799 5794 5789 5786 5781 5782 5780 5776 5775 5769 5766
5865 5834 5870 5863 5870 5871 5860 5868 5831 5844 5816 5806 5840 5831 5837 5840 5850 5857 5857 5865 5874 5876 5867 5859 5854 5847 5843 5838 5832 5824 5817 5806 5803 5799 5793 5788 5783 5780 5778 5773 5767 5766 5761 5756
5860 5849 5848 5855 5837 5838 5839 5836 5852 5865 5855 5828 5818 5831 5853 5842 5846 5847 5853 5860 5864 5866 5863 5862 5855 5853 5843 5840 5831 5822 5815 5805 5800 5797 5792 5785 5781 5777 5770 5764 5760 5756 5753 5748
5855 5844 5831 5836 5857 5866 5867 5847 5847 5829 5813 5834 5830 5820 5858 5850 5849 5849 5852 5853 5858 5860 5860 5860 5853 5849 5839 5834 5828 5818 5811 5801 5795 5790 5784 5777 5771 5766 5760 5756 5752 5749 5744 5741
5848 5830 5816 5827 5839 5849 5840 5857 5859 5854 5851 5830 5815 5818 5855 5847 5846 5844 5842 5849 5848 5851 5853 5855 5844 5837 5828 5821 5817 5811 5804 5795 5789 5780 5773 5770 5764 5757 5752 5747 5744 5740 5735 5731
5848 5835 5822 5823 5828 5845 5821 5837 5851 5852 5829 5826 5830 5824 5833 5835 5834 5836 5836 5839 5841 5839 5839 5836 5830 5820 5815 5811 5805 5799 5790 5787 5779 5771 5767 5759 5754 5749 5745 5740 5734 5730 5726 5721
5837 5811 5827 5842 5860 5857 5844 5834 5843 5830 5836 5825 5844 5833 5836 5823 5823 5821 5824 5825 5824 5823 5821 5819 5814 5806 5800 5794 5787 5783 5778 5773 5767 5759 5757 5749 5744 5740 5734 5729 5724 5719 5714 5708
5837 5811 5819 5823 5846 5848 5844 5845 5842 5839 5837 5836 5840 5835 5837 5827 5824 5817 5816 5815 5811 5810 5814 5812 5803 5793 5786 5779 5773 5767 5764 5761 5756 5747 5742 5738 5733 5728 5723 5719 5714 5710 5704 5697
5819 5815 5805 5797 5829 5833 5809 5834 5841 5843 5841 5835 5819 5834 5824 5814 5810 5806 5807 5806 5802 5800 5797 5790 5784 5777 5768 5760 5763 5756 5751 5748 5742 5736 5731 5727 5722 5716 5713 5709 5706 5700 5693 5686
5808 5806 5809 5797 5809 5779 5824 5855 5852 5840 5839 5839 5831 5816 5809 5802 5801 5797 5799 5798 5791 5786 5780 5774 5770 5762 5756 5752 5745 5742 5737 5733 5729 5723 5719 5714 5708 5703 5700 5696 5692 5688 5683 5676
5828 5807 5791 5785 5792 5815 5810 5821 5828 5822 5817 5827 5814 5804 5801 5798 5789 5776 5787 5786 5778 5772 5765 5757 5753 5746 5741 5735 5732 5728 5724 5720 5715 5711 5705 5700 5696 5691 5687 5683 5679 5673 5669 5666
5818 5812 5799 5799 5787 5777 5819 5832 5840 5834 5788 5816 5810 5795 5791 5786 5768 5757 5767 5765 5757 5752 5746 5741 5739 5735 5728 5722 5718 5713 5708 5704 5700 5694 5690 5686 5682 5679 5676 5672 5666 5663 5659 5656
5782 5791 5783 5795 5785 5800 5812 5818 5824 5771 5785 5808 5802 5795 5787 5771 5773 5761 5756 5749 5744 5735 5731 5730 5726 5719 5713 5709 5704 5698 5694 5690 5686 5683 5680 5677 5674 5669 5666 5664 5662 5657 5653 5649
5774 5770 5781 5792 5788 5768 5811 5804 5784 5787 5800 5798 5793 5785 5776 5766 5758 5750 5743 5734 5729 5723 5719 5717 5712 5706 5701 5696 5690 5684 5681 5678 5674 5669 5666 5663 5661 5659 5659 5657 5655 5650 5645 5641
5776 5793 5793 5796 5789 5798 5797 5789 5795 5797 5790 5788 5782 5777 5764 5752 5744 5736 5727 5723 5718 5713 5707 5704 5699 5694 5689 5683 5675 5670 5665 5660 5655 5652 5649 5648 5648 5648 5650 5648 5645 5641 5640 5637
5779 5788 5785 5776 5769 5779 5779 5783 5784 5785 5781 5779 5771 5760 5751 5740 5733 5724 5717 5711 5705 5698 5693 5689 5681 5674 5669 5663 5657 5655 5647 5641 5640 5639 5636 5641 5645 5645 5645 5644 5642 5637 5637 5631
5785 5774 5769 5757 5759 5766 5768 5769 5769 5766 5764 5758 5753 5746 5737 5727 5716 5708 5699 5694 5689 5682 5675 5672 5664 5659 5657 5652 5643 5639 5633 5627 5626 5627 5631 5637 5639 5637 5639 5639 5632 5633 5632 5621
5771 5765 5754 5750 5756 5758 5746 5752 5752 5746 5740 5737 5730 5722 5717 5710 5701 5696 5685 5677 5672 5666 5662 5658 5654 5646 5640 5634 5631 5628 5619 5615 5616 5617 5623 5623 5623 5630 5633 5630 5629 5633 5621 5614